Overview Statistics Trail Chart Weather Telemetry Raw packets
 

This is the latest recevied weather packets stored in our database for station/object HS2LXA-WX. If no packets are shown the sender has not sent any weather packets the latest 10 day(s).

<< 40 41 42 43 44 45 46 >>
Time Temp. Humidity Pressure Rain* Wind** Luminosity Snow
1787920257 30° C 90% 1008.8 hPa 0 mm - - -
1787919657 30° C 88% 1008.7 hPa 0 mm - - -
1787919058 31.11° C 87% 1008.7 hPa 0 mm - - -
1787918456 31.11° C 88% 1008.7 hPa 0 mm - - -
1787917625 30.56° C 88% 1008.5 hPa 0 mm - - -
1787917025 31.11° C 88% 1008.3 hPa 0 mm - - -
1787916425 31.11° C 87% 1008.3 hPa 0 mm - - -
1787915835 31.11° C 86% 1008.2 hPa 0 mm - - -
1787915225 31.67° C 85% 1008 hPa 0 mm - - -
1787914625 31.67° C 86% 1007.9 hPa 0 mm - - -
1787914025 31.67° C 86% 1007.9 hPa 0 mm - - -
1787913375 31.67° C 87% 1007.8 hPa 0 mm - - -
1787912774 31.67° C 87% 1007.7 hPa 0 mm - - -
1787912175 31.11° C 87% 1007.6 hPa 0 mm - - -
1787911574 31.11° C 88% 1007.5 hPa 0 mm - - -
1787910975 31.11° C 89% 1007.6 hPa 0 mm - - -
1787910374 31.67° C 88% 1007.7 hPa 0 mm - - -
1787909774 31.67° C 87% 1007.7 hPa 0 mm - - -
1787909169 31.11° C 88% 1007.5 hPa 0 mm - - -
1787908569 30.56° C 88% 1007.6 hPa 0 mm - - -
1787907506 31.11° C 89% 1007.9 hPa 0 mm - - -
1787906906 30.56° C 91% 1007.9 hPa 0 mm - - -
1787906307 30.56° C 90% 1007.9 hPa 0 mm - - -
1787904721 31.11° C 89% 1008.2 hPa 0 mm - - -
1787903751 30.56° C 90% 1008.2 hPa 0 mm - - -

* Rain latest hour (hover to see other rain measurements)
** Current wind speed in m/s (hover to see current wind gust speed)